Weather observations for the past three days for
Deming Municipal Airport
Imperial (Metric)
Date Time (mdt) Wind (mph) Vis. (mi.) Weather Sky Cond. Temperature (ºF) Relative Humidity Wind Chill (°F) Heat Index (°F) Pressure Precipitation (in)
Air Dwpt 6 hour altimeter (in) sea level (mb) 1 hr 3 hr 6 hr
Max. Min.
18 08:53 W 20 G 26 10.00 Fair CLR 81 33.1 18% 79 29.89 1003.1
18 07:53 W 12 10.00 Fair CLR 75 32 21% 76 29.88 1002.6
18 06:53 Calm 10.00 Fair CLR 68 30 24% 29.86 1002.4
18 05:53 W 9 10.00 Fair CLR 66.9 30 82 66 25% 29.84 1001.6
18 04:53 W 9 10.00 Fair CLR 69.1 30 23% 29.82 1000.9
18 03:53 SW 6 10.00 Fair CLR 71.1 28 20% 29.81 1000.3
18 02:53 SW 6 10.00 Fair CLR 70 26.1 19% 29.8 1000.0
18 01:53 W 7 10.00 Fair CLR 75 27 17% 76 29.8 999.9
18 00:53 SW 8 10.00 Fair CLR 80.1 27 14% 78 29.8 999.7
17 23:53 W 12 10.00 Fair CLR 82 27 98.1 82 13% 80 29.79 999.5
17 22:53 W 10 10.00 Fair CLR 82 24.1 12% 80 29.79 999.2
17 21:53 SW 12 10.00 Fair CLR 86 21 9% 83 29.76 998.3
17 20:53 SW 10 10.00 Fair CLR 89.1 18 7% 85 29.74 997.9
17 19:53 SW 13 G 24 10.00 Fair CLR 93.9 19 6% 89 29.73 997.5
17 18:53 SW 16 G 28 10.00 Fair CLR 97 21.9 7% 92 29.72 997.2
17 17:53 W 22 G 31 10.00 Fair and Breezy CLR 99 26.1 100 91.9 7% 93 29.72 997.5
17 16:53 SW 18 G 29 10.00 Fair CLR 99 26.1 7% 93 29.73 997.7
17 15:53 SW 17 G 29 10.00 Fair CLR 99 28 8% 94 29.75 998.4
17 14:53 W 13 G 31 10.00 Fair CLR 99 28.9 8% 94 29.77 999.1
17 13:53 SW 22 G 31 10.00 Fair and Breezy CLR 97 35.1 11% 92 29.8 999.8
17 12:53 SW 13 G 28 10.00 Fair CLR 93.9 37 14% 89 29.83 1000.9
17 11:53 W 17 G 26 10.00 Fair CLR 91.9 36 91.9 64 14% 88 29.85 1001.8
17 10:53 W 13 G 25 10.00 Fair CLR 91 35.1 14% 87 29.86 1002.1
17 09:53 SW 12 G 20 10.00 Fair CLR 88 30.9 13% 84 29.87 1002.3
17 08:53 SW 8 10.00 Fair CLR 81 28.9 15% 79 29.88 1002.8
17 07:53 SW 7 10.00 Fair CLR 73.9 27 17% 29.87 1002.3
17 06:53 SW 7 10.00 Fair CLR 70 25 18% 29.85 1001.9
17 05:53 S 6 10.00 Fair CLR 64 23 78.1 64 21% 29.83 1001.5
17 04:53 W 6 10.00 Fair CLR 70 24.1 18% 29.82 1000.6
17 03:53 W 7 10.00 Fair CLR 70 25 18% 29.8 999.9
17 02:53 NW 6 10.00 Fair CLR 69.1 25 19% 29.81 1000.3
17 01:53 W 8 10.00 Fair CLR 73.9 24.1 15% 29.82 1000.5
17 00:53 W 8 10.00 Fair CLR 77 24.1 14% 76 29.82 1000.3
16 23:53 SW 9 10.00 Fair CLR 75.9 23 100 75 14% 76 29.82 1000.6
16 22:53 W 7 10.00 Fair CLR 80.1 24.1 13% 78 29.8 999.9
16 21:53 W 7 10.00 Fair CLR 86 25 11% 83 29.8 999.7
16 20:53 W 9 10.00 Fair CLR 91 23 8% 87 29.79 999.3
16 19:53 W 12 10.00 Fair CLR 96.1 24.1 7% 91 29.78 999.4
16 18:53 W 18 G 25 10.00 Fair CLR 98.1 25 7% 93 29.78 999.4
16 17:53 W 17 G 29 10.00 Fair CLR 100 25 102 96.1 7% 94 29.79 999.7
16 16:53 SW 16 G 28 10.00 Fair CLR 100 23 6% 94 29.81 1000.5
16 15:53 SW 21 G 28 10.00 Fair and Breezy CLR 100.9 24.1 6% 95 29.83 1001.2
16 14:53 SW 13 G 28 10.00 Fair CLR 100 21.9 6% 94 29.85 1001.6
16 13:53 SW 13 G 22 10.00 Fair CLR 100 23 6% 94 29.87 1002.1
16 12:53 SW 10 10.00 Fair CLR 97 26.1 8% 92 29.89 1003.0
16 11:53 SW 9 10.00 Fair CLR 96.1 28 96.1 68 9% 91 29.91 1003.9
16 10:53 W 10 10.00 Fair CLR 93.9 27 9% 89 29.93 1004.1
16 09:53 W 12 10.00 Fair CLR 89.1 28.9 11% 85 29.94 1004.5
16 08:53 W 13 10.00 Fair CLR 84.9 28.9 13% 82 29.94 1004.7
16 07:53 SW 6 10.00 Fair CLR 75 28 18% 76 29.95 1005.0
16 06:53 W 7 10.00 Fair CLR 70 28 21% 29.93 1004.7
16 05:53 W 8 10.00 Fair CLR 70 24.1 78.1 66.9 18% 29.91 1003.9
16 04:53 W 10 10.00 Fair CLR 68 23 18% 29.88 1003.0
16 03:53 S 8 10.00 Fair CLR 66.9 19.9 17% 29.89 1003.2
16 02:53 W 9 10.00 Fair CLR 71.1 19.9 14% 29.89 1003.1
16 01:53 W 7 10.00 Fair CLR 75 19.9 12% 75 29.9 1003.3
16 00:53 W 9 10.00 Fair CLR 73.9 19 12% 29.9 1003.6
15 23:53 W 7 10.00 Fair CLR 73.9 19 99 73.9 12% 29.91 1004.0
15 22:53 W 8 10.00 Fair CLR 81 17.1 9% 79 29.9 1003.4
15 21:53 W 10 10.00 Fair CLR 87.1 16 7% 84 29.89 1003.0
15 20:53 W 12 10.00 Fair CLR 89.1 14 6% 85 29.88 1002.7
15 19:53 W 10 10.00 Fair CLR 95 12.9 5% 90 29.87 1002.8
15 18:53 W 14 G 23 10.00 Fair CLR 98.1 14 4% 93 29.87 1003.0
15 17:53 W 13 G 24 10.00 Fair CLR 99 14 100 91 4% 93 29.87 1003.3
15 16:53 SW 10 G 24 10.00 Fair CLR 99 14 4% 93 29.88 1003.5
15 14:53 W 14 G 20 10.00 Fair CLR 99 10.9 4% 93 29.93 1004.7
15 13:53 SW 9 10.00 Fair CLR 95 12.9 5% 90 29.96 1005.6
15 12:53 W 8 10.00 Fair CLR 93.9 15.1 5% 89 29.99 1006.5
15 11:53 Calm 10.00 Fair CLR 91 30 91.9 55.9 11% 87 30 1007.0
15 10:53 NW 8 10.00 Fair CLR 90 39 17% 86 30.01 1007.2
15 09:53 N 6 10.00 Fair CLR 84 39 20% 81 30.02 1007.2
Date Time (mdt) Wind (mph) Vis. (mi.) Weather Sky Cond. Air Dwpt Max. Min. Relative Humidity Wind Chill (°F) Heat Index (°F) altimeter (in) sea level (mb) 1 hr 3 hr 6 hr
6 hour
Temperature (ºF) Pressure Precipitation (in)